Location: B�hl
(48.6968°N, 8.1352°E)
Time: 04:02:15
(UTC+00:00)

DELTA 2 R/B (1) - Pass Details

Date: 08 March 2021
Orbit: 790 x 803 km, 39.6° (Epoch: 17 April)

Event Time Altitude Azimuth Distance (km) Brightness Sun altitude
Rises 19:38:58 0° 251° (WSW) 3,279 7.5 -23.0°
Reaches altitude 10° 19:41:39 10° 242° (WSW) 2,349 6.5 -23.4°
Enters shadow 19:46:27 32° 182° (S) 1,321 4.5 -24.2°
